Homer, AK

4:19 AM AKST on November 18, 2017 (GMT -0900)
Homer

Weather History for PAHO - September, 2011

Change the Weather History Date:

Saturday, September 17, 2011

  Actual Average Record
Temperature  
Mean Temperature 46 °F -  
Max Temperature 51 °F 54 °F 62 °F (2014)
Min Temperature 42 °F 39 °F 26 °F (1939)
Degree Days  
Heating Degree Days 18    
Moisture  
Dew Point 44 °F    
Average Humidity 93    
Maximum Humidity 100    
Minimum Humidity 71    
Precipitation  
Precipitation 0.11 in - - ()
Sea Level Pressure  
Sea Level Pressure 29.51 in    
Wind  
Wind Speed 2 mph (East)    
Max Wind Speed 7 mph    
Max Gust Speed -    
Visibility 10 miles    
Events Rain    
Averages and records for this station are not official NWS values.
T = Trace of Precipitation, MM = Missing Value Source: NWS Daily Summary

Daily Weather History Graph

Daily Weather History Graph

Search for Another Location

Airport or City:

Trip Planner

Search our weather history database for the weather conditions in past years. The results will help you decide how hot, cold, wet, or windy it might be!

Date:

Astronomy

Sep. 17, 2011 Rise Set
Actual Time 7:38 AM AKDT 8:20 PM AKDT
Civil Twilight 6:56 AM AKDT 9:02 PM AKDT
Nautical Twilight 6:06 AM AKDT 9:52 PM AKDT
Astronomical Twilight 5:09 AM AKDT 10:48 PM AKDT
Moon 9:15 PM AKDT (9/17) 2:31 PM AKDT (9/17)
Length of Visible Light 14h 05m
Length of Day
12h 42m
Waning Gibbous, 75% of the Moon is Illuminated
Sep 17
Waning Gibbous
Sep 20
Last Quarter
Sep 27
New
Oct 3
First Quarter
Oct 11
Full

Hourly Weather History & Observations

Time (AKDT) Temp. Windchill Dew Point Humidity Pressure Visibility Wind Dir Wind Speed Gust Speed Precip Events Conditions
12:53 AM 42.1 °F 40.2 °F 42.1 °F 100% 29.49 in 10.0 mi ENE 3.5 mph - N/A   Overcast
1:53 AM 43.0 °F - 43.0 °F 100% 29.49 in 9.0 mi Calm Calm - 0.01 in Rain Light Rain
2:53 AM 43.0 °F 40.3 °F 43.0 °F 100% 29.49 in 6.0 mi ENE 4.6 mph - 0.05 in Rain Rain
3:00 AM 42.8 °F 40.1 °F 42.8 °F 100% 29.49 in 6.0 mi ENE 4.6 mph - 0.01 in Rain Light Rain
3:53 AM 43.0 °F - 43.0 °F 100% 29.49 in 10.0 mi Calm Calm - 0.04 in Rain Light Rain
4:53 AM 43.0 °F - 43.0 °F 100% 29.49 in 9.0 mi Calm Calm - 0.01 in   Overcast
5:53 AM 42.1 °F - 42.1 °F 100% 29.49 in 10.0 mi Calm Calm - N/A   Overcast
6:53 AM 42.1 °F - 42.1 °F 100% 29.49 in 10.0 mi Calm Calm - N/A   Overcast
7:53 AM 42.1 °F - 42.1 °F 100% 29.49 in 10.0 mi Calm Calm - N/A   Overcast
8:53 AM 42.1 °F 39.2 °F 42.1 °F 100% 29.49 in 10.0 mi NNE 4.6 mph - N/A   Overcast
9:53 AM 45.0 °F 42.6 °F 44.1 °F 97% 29.49 in 10.0 mi ENE 4.6 mph - N/A   Overcast
10:53 AM 46.9 °F - 45.0 °F 93% 29.50 in 10.0 mi ESE 5.8 mph - N/A   Overcast
11:53 AM 46.9 °F - 45.0 °F 93% 29.51 in 10.0 mi ESE 6.9 mph - N/A   Scattered Clouds
12:53 PM 48.9 °F - 45.0 °F 86% 29.51 in 10.0 mi South 4.6 mph - N/A   Scattered Clouds
1:53 PM 48.9 °F - 44.1 °F 83% 29.52 in 10.0 mi South 3.5 mph - N/A   Scattered Clouds
2:53 PM 50.0 °F - 45.0 °F 83% 29.51 in 10.0 mi SSW 4.6 mph - N/A   Scattered Clouds
3:53 PM 51.1 °F - 43.0 °F 74% 29.51 in 10.0 mi NNW 4.6 mph - N/A   Mostly Cloudy
4:53 PM 50.0 °F - 41.0 °F 71% 29.51 in 10.0 mi NNW 6.9 mph - N/A   Mostly Cloudy
5:53 PM 51.1 °F - 42.1 °F 71% 29.51 in 10.0 mi Calm Calm - N/A   Clear
6:53 PM 50.0 °F - 44.1 °F 80% 29.51 in 10.0 mi WSW 4.6 mph - N/A   Overcast
7:53 PM 48.0 °F - 44.1 °F 86% 29.51 in 10.0 mi Calm Calm - N/A   Overcast
8:53 PM 46.9 °F - 45.0 °F 93% 29.52 in 10.0 mi Calm Calm - 0.00 in   Overcast
9:53 PM 45.0 °F - 45.0 °F 100% 29.52 in 10.0 mi Calm Calm - N/A   Overcast
10:08 PM 46.4 °F - 44.6 °F 93% 29.52 in 10.0 mi North - - N/A   Overcast
10:29 PM 46.4 °F - 44.6 °F 93% 29.52 in 10.0 mi Calm Calm - N/A   Overcast
10:38 PM 44.6 °F - 44.6 °F 100% 29.52 in 10.0 mi Calm Calm - N/A   Overcast
10:53 PM 44.1 °F - 44.1 °F 100% 29.52 in 10.0 mi Calm Calm - N/A   Overcast
11:53 PM 45.0 °F - 44.1 °F 97% 29.53 in 10.0 mi Calm Calm - N/A   Unknown